Location: Ferchesar
(52.6477°N, 12.4298°E)
Time: 04:23:12
(UTC+01:00)

Explorer 7 - Pass Details

Date: 15 December 2021
Orbit: 483 x 674 km, 50.3° (Epoch: 21 January)

Event Time Altitude Azimuth Distance (km) Brightness Sun altitude
Rises 06:57:44 0° 280° (W) 2,821 - -10.8°
Reaches altitude 10° 07:00:18 10° 269° (W) 1,881 - -10.5°
Exits shadow 07:00:33 11° 267° (W) 1,795 8.9 -10.4°
Maximum altitude 07:03:56 28° 211° (SSW) 1,062 8.2 -10.0°
Drops below altitude 10° 07:07:24 10° 152° (SSE) 1,775 10.3 -9.5°
Sets 07:09:45 0° 140° (SE) 2,630 11.7 -9.2°
